Home > Weather > Bridlington > Past weeks

Flag for United Kingdom Weather for the Past 2 Weeks in Bridlington, England, United Kingdom

Now
54 °F

Cool.


Feels Like: 50 °F
Forecast: 48 / 58 °F
Wind: 14 mph from Southeast

Location: Bridlington Mrsc

Current Time: May 5, 2016 at 11:59:56 AM

Latest Report: May 5, 2016 at 11:00 AM


Visibility: N/A

Pressure: 30.13 "Hg

Humidity: 72%

Dew Point: 45 °F

Location of BridlingtonLocation

Historic Weather in Bridlington — Graph

°F

Bridlington Temperature Yesterday

Maximum temperature yesterday: 62 °F (at 4:00 PM)
Minimum temperature yesterday: 39 °F (at 3:00 AM)
Average temperature yesterday: 50 °F

High & Low Weather Summary for the Past Weeks

 TemperatureHumidityPressure
High62 °F (May 4, 4:00 PM)96% (Apr 28, 7:00 AM)30.49 "Hg (Apr 28, 7:00 AM)
Low29 °F (Apr 28, 6:00 AM)43% (May 3, 3:00 PM)29.53 "Hg (Apr 29, 10:00 AM)
Average45 °F76%30.09 "Hg
* Reported Apr 20 10:00 AM — May 5 10:00 AM, Bridlington, Weather by CustomWeather, © 2016

Note: Actual official high and low records may vary slightly from our data, if they occured in-between our weather recording intervals... More about our weather records

Advertising

Bridlington Weather History for the Previous 24 Hours

Scroll right to see more
 ConditionsComfort  
Time TempWeatherWind HumidityBarometerVisibility
10:00 AM
Thu, May 5
52 °FCool.14 mph75%30.14 "HgN/A
9:00 AM51 °FCool.12 mph74%30.14 "HgN/A
8:00 AM49 °FCool.8 mph75%30.15 "HgN/A
7:00 AM47 °FCool.9 mph69%30.14 "HgN/A
6:00 AM46 °FCool.7 mph76%30.15 "HgN/A
5:00 AM47 °FCool.8 mph73%30.16 "HgN/A
4:00 AM47 °FCool.13 mph80%30.16 "HgN/A
3:00 AM48 °FCool.14 mph77%30.16 "HgN/A
2:00 AM49 °FCool.17 mph72%30.16 "HgN/A
1:00 AM49 °FCool.13 mph82%30.16 "HgN/A
12:00 AM49 °FCool.16 mph85%30.16 "HgN/A
11:00 PM
Wed, May 4
49 °FCool.8 mph87%30.17 "HgN/A
10:00 PM49 °FCool.6 mph86%30.17 "HgN/A
9:00 PM49 °FCool.13 mph85%30.16 "HgN/A
8:00 PM50 °FCool.16 mph82%30.16 "HgN/A
7:00 PM52 °FCool.12 mph73%30.16 "HgN/A
6:00 PM58 °FRefreshingly cool.17 mph57%30.17 "HgN/A
5:00 PM59 °FRefreshingly cool.20 mph52%30.17 "HgN/A
4:00 PM62 °FRefreshingly cool.17 mph43%30.19 "HgN/A
3:00 PM61 °FRefreshingly cool.17 mph47%30.21 "HgN/A
2:00 PM62 °FRefreshingly cool.16 mph47%30.22 "HgN/A
1:00 PM59 °FRefreshingly cool.18 mph54%30.24 "HgN/A
12:00 PM53 °FCool.16 mph76%30.25 "HgN/A
11:00 AM52 °FCool.15 mph76%30.26 "HgN/A
Weather by CustomWeather, © 2016

See weather overviewHow to use our weather pages